This is the latest recevied weather packets stored in our database for station/object KC0CAU. If no packets are shown the sender has not sent any weather packets the latest 10 day(s).
| Time | Temp. | Humidity | Pressure | Rain* | Wind** | Luminosity | Snow |
|---|---|---|---|---|---|---|---|
| 1777564833 | 7.22° C | 55% | 1022.9 hPa | 0 mm | - | - | - |
| 1777563937 | 6.67° C | 58% | 1022.9 hPa | 0 mm | - | - | - |
| 1777563030 | 6.67° C | 57% | 1022.8 hPa | 0 mm | - | - | - |
| 1777562128 | 6.67° C | 60% | 1022.8 hPa | 0 mm | - | - | - |
| 1777561229 | 6.67° C | 61% | 1022.9 hPa | 0 mm | - | - | - |
| 1777560325 | 6.11° C | 57% | 1022.7 hPa | 0 mm | - | - | - |
| 1777559422 | 5.56° C | 55% | 1022.7 hPa | 0 mm | - | - | - |
| 1777558519 | 4.44° C | 59% | 1022.9 hPa | 0 mm | - | - | - |
| 1777557617 | 3.89° C | 59% | 1022.9 hPa | 0 mm | - | - | - |
| 1777556721 | 4.44° C | 58% | 1023 hPa | 0 mm | - | - | - |
| 1777555813 | 3.89° C | 61% | 1023.1 hPa | 0 mm | - | - | - |
| 1777554912 | 3.89° C | 61% | 1023 hPa | 0 mm | - | - | - |
| 1777554008 | 3.33° C | 62% | 1023 hPa | 0 mm | - | - | - |
| 1777553109 | 2.78° C | 62% | 1023.1 hPa | 0 mm | - | - | - |
| 1777552203 | 2.22° C | 62% | 1023.2 hPa | 0 mm | - | - | - |
| 1777551304 | 2.22° C | 63% | 1023.4 hPa | 0 mm | - | - | - |
| 1777550402 | 1.67° C | 63% | 1023.3 hPa | 0 mm | - | - | - |
| 1777549501 | 2.22° C | 62% | 1023.3 hPa | 0 mm | - | - | - |
| 1777548657 | 2.22° C | 62% | 1023.3 hPa | 0 mm | - | - | - |
| 1777547757 | 1.67° C | 65% | 1023.3 hPa | 0 mm | - | - | - |
| 1777546854 | 1.67° C | 65% | 1023.2 hPa | 0 mm | - | - | - |
| 1777545951 | 1.67° C | 65% | 1023.3 hPa | 0 mm | - | - | - |
| 1777545051 | 1.11° C | 67% | 1023.8 hPa | 0 mm | - | - | - |
| 1777544155 | 0.56° C | 68% | 1023.8 hPa | 0 mm | - | - | - |
| 1777543249 | 0.56° C | 68% | 1023.6 hPa | 0 mm | - | - | - |
* Rain latest hour (hover to see other rain measurements)
** Current wind speed in m/s (hover to see current wind gust speed)